This is the latest recevied weather packets stored in our database for station/object N0FDH. If no packets are shown the sender has not sent any weather packets the latest 10 day(s).
| Time | Temp. | Humidity | Pressure | Rain* | Wind** | Luminosity | Snow |
|---|---|---|---|---|---|---|---|
| 1777834686 | 18.89° C | 31% | 1005 hPa | 0 mm | - | 669 W/m² | - |
| 1777834382 | 19.44° C | 33% | 1004.9 hPa | 0 mm | - | 673 W/m² | - |
| 1777834081 | 19.44° C | 30% | 1005.2 hPa | 0 mm | - | 679 W/m² | - |
| 1777833778 | 19.44° C | 36% | 1005 hPa | 0 mm | - | 679 W/m² | - |
| 1777833474 | 18.89° C | 34% | 1005.2 hPa | 0 mm | - | 684 W/m² | - |
| 1777833172 | 18.33° C | 31% | 1005.3 hPa | 0 mm | - | 687 W/m² | - |
| 1777832869 | 18.89° C | 34% | 1005.4 hPa | 0 mm | - | 689 W/m² | - |
| 1777832568 | 18.89° C | 32% | 1005 hPa | 0 mm | - | 689 W/m² | - |
| 1777832264 | 18.89° C | 37% | 1005 hPa | 0 mm | - | 691 W/m² | - |
| 1777831962 | 18.89° C | 35% | 1005.4 hPa | 0 mm | - | 693 W/m² | - |
| 1777831658 | 18.89° C | 35% | 1005.3 hPa | 0 mm | - | 693 W/m² | - |
| 1777831356 | 18.89° C | 39% | 1005.3 hPa | 0 mm | - | 671 W/m² | - |
| 1777831052 | 19.44° C | 38% | 1005.3 hPa | 0 mm | - | 563 W/m² | - |
| 1777830751 | 18.89° C | 37% | 1005.4 hPa | 0 mm | - | 618 W/m² | - |
| 1777830446 | 18.89° C | 39% | 1005.4 hPa | 0 mm | - | 689 W/m² | - |
| 1777830145 | 18.33° C | 36% | 1005.3 hPa | 0 mm | - | 637 W/m² | - |
| 1777829845 | 18.33° C | 38% | 1005.4 hPa | 0 mm | - | 687 W/m² | - |
| 1777829541 | 18.33° C | 39% | 1005.4 hPa | 0 mm | - | 642 W/m² | - |
| 1777829238 | 18.89° C | 38% | 1005.5 hPa | 0 mm | - | 620 W/m² | - |
| 1777828935 | 18.89° C | 40% | 1005.5 hPa | 0 mm | - | 500 W/m² | - |
| 1777828631 | 18.33° C | 39% | 1005.6 hPa | 0 mm | - | 601 W/m² | - |
| 1777828329 | 18.33° C | 43% | 1005.5 hPa | 0 mm | - | 667 W/m² | - |
| 1777828026 | 18.33° C | 42% | 1005.5 hPa | 0 mm | - | 669 W/m² | - |
| 1777827723 | 18.33° C | 42% | 1005.5 hPa | 0 mm | - | 658 W/m² | - |
| 1777827420 | 18.33° C | 42% | 1005.7 hPa | 0 mm | - | 659 W/m² | - |
* Rain latest hour (hover to see other rain measurements)
** Current wind speed in m/s (hover to see current wind gust speed)